Time,TemperatureF,DewpointF,PressureIn,WindDirection,WindDirectionDegrees,WindSpeedMPH,WindSpeedGustMPH,Humidity,HourlyPrecipIn,Conditions,Clouds,dailyrainin,SolarRadiationWatts/m^2,SoftwareType,DateUTC
2013-01-19 00:02:00,19.0,15.0,-100.00,NW,325,0.0,4.0,83,0.00,,,0.07,0.000000,,2013-01-19 06:02:00,
2013-01-19 00:12:00,19.0,15.0,-100.00,NW,325,0.0,4.0,83,0.00,,,0.07,0.000000,,2013-01-19 06:12:00,
2013-01-19 00:43:00,19.0,15.0,-100.00,NNW,341,0.0,3.0,85,0.00,,,0.07,0.000000,,2013-01-19 06:43:00,
2013-01-19 00:53:00,19.0,15.0,-100.00,NNW,341,0.0,3.0,85,0.00,,,0.07,0.000000,,2013-01-19 06:53:00,
2013-01-19 01:02:00,19.0,15.0,-100.00,NNW,341,0.0,3.0,85,0.00,,,0.07,0.000000,,2013-01-19 07:02:00,
2013-01-19 01:12:00,19.0,15.0,-100.00,NNW,341,0.0,3.0,85,0.00,,,0.07,0.000000,,2013-01-19 07:12:00,
2013-01-19 01:33:00,18.0,15.0,-100.00,East,93,1.0,2.0,86,0.00,,,0.07,0.000000,,2013-01-19 07:33:00,
2013-01-19 01:43:00,18.0,15.0,-100.00,East,93,1.0,2.0,86,0.00,,,0.07,0.000000,,2013-01-19 07:43:00,
2013-01-19 01:53:00,18.0,15.0,-100.00,East,93,1.0,2.0,86,0.00,,,0.07,0.000000,,2013-01-19 07:53:00,
2013-01-19 02:02:00,18.0,15.0,-100.00,East,93,1.0,2.0,86,0.00,,,0.07,0.000000,,2013-01-19 08:02:00,
2013-01-19 02:12:00,18.0,15.0,-100.00,East,93,1.0,2.0,86,0.00,,,0.07,0.000000,,2013-01-19 08:12:00,
2013-01-19 02:43:00,19.0,16.0,-100.00,SSE,163,0.0,3.0,86,0.00,,,0.07,0.000000,,2013-01-19 08:43:00,
2013-01-19 02:53:00,19.0,16.0,-100.00,SSE,163,0.0,3.0,86,0.00,,,0.07,0.000000,,2013-01-19 08:53:00,
2013-01-19 03:02:00,19.0,16.0,-100.00,SSE,163,0.0,3.0,86,0.00,,,0.07,0.000000,,2013-01-19 09:02:00,
2013-01-19 03:12:00,19.0,16.0,-100.00,SSE,163,0.0,3.0,86,0.00,,,0.07,0.000000,,2013-01-19 09:12:00,
2013-01-19 03:43:00,19.0,16.0,-100.00,ENE,63,0.0,3.0,88,0.00,,,0.07,0.000000,,2013-01-19 09:43:00,
2013-01-19 03:53:00,19.0,16.0,-100.00,ENE,63,0.0,3.0,88,0.00,,,0.07,0.000000,,2013-01-19 09:53:00,
2013-01-19 04:02:00,19.0,16.0,-100.00,ENE,63,0.0,3.0,88,0.00,,,0.07,0.000000,,2013-01-19 10:02:00,
2013-01-19 04:12:00,19.0,16.0,-100.00,ENE,63,0.0,3.0,88,0.00,,,0.07,0.000000,,2013-01-19 10:12:00,
2013-01-19 04:43:00,19.0,16.0,-100.00,North,7,0.0,4.0,88,0.00,,,0.07,0.000000,,2013-01-19 10:43:00,
2013-01-19 04:53:00,19.0,16.0,-100.00,North,7,0.0,4.0,88,0.00,,,0.07,0.000000,,2013-01-19 10:53:00,
2013-01-19 05:03:00,19.0,16.0,-100.00,North,7,0.0,4.0,88,0.00,,,0.07,0.000000,,2013-01-19 11:03:00,
2013-01-19 05:12:00,19.0,16.0,-100.00,North,7,0.0,4.0,88,0.00,,,0.07,0.000000,,2013-01-19 11:12:00,
2013-01-19 06:48:00,18.0,16.0,-100.00,ENE,61,0.0,5.0,90,0.00,,,0.07,0.000000,,2013-01-19 12:48:00,
2013-01-19 06:53:00,18.0,16.0,-100.00,ENE,61,0.0,5.0,90,0.00,,,0.07,0.000000,,2013-01-19 12:53:00,
2013-01-19 07:03:00,18.0,16.0,-100.00,ENE,61,0.0,5.0,90,0.00,,,0.07,0.000000,,2013-01-19 13:03:00,
2013-01-19 07:12:00,18.0,16.0,-100.00,ENE,61,0.0,5.0,90,0.00,,,0.07,0.000000,,2013-01-19 13:12:00,
2013-01-19 07:43:00,17.0,15.0,-100.00,SSE,150,0.0,1.0,90,0.00,,,0.07,0.000000,,2013-01-19 13:43:00,
2013-01-19 07:53:00,17.0,15.0,-100.00,SSE,150,0.0,1.0,90,0.00,,,0.07,0.000000,,2013-01-19 13:53:00,
2013-01-19 08:02:00,17.0,15.0,-100.00,SSE,150,0.0,1.0,90,0.00,,,0.07,0.000000,,2013-01-19 14:02:00,
2013-01-19 08:12:00,17.0,15.0,-100.00,SSE,150,0.0,1.0,90,0.00,,,0.07,0.000000,,2013-01-19 14:12:00,
2013-01-19 08:43:00,16.0,14.0,-100.00,SE,140,1.0,2.0,91,0.00,,,0.07,5.000000,,2013-01-19 14:43:00,
2013-01-19 08:53:00,16.0,14.0,-100.00,SE,140,1.0,2.0,91,0.00,,,0.07,5.000000,,2013-01-19 14:53:00,
2013-01-19 09:03:00,16.0,14.0,-100.00,SE,140,1.0,2.0,91,0.00,,,0.07,5.000000,,2013-01-19 15:03:00,
2013-01-19 09:12:00,16.0,14.0,-100.00,SE,140,1.0,2.0,91,0.00,,,0.07,5.000000,,2013-01-19 15:12:00,
2013-01-19 09:43:00,21.0,19.0,-100.00,SW,223,1.0,4.0,90,0.00,,,0.07,42.000000,,2013-01-19 15:43:00,
2013-01-19 09:53:00,21.0,19.0,-100.00,SW,223,1.0,4.0,90,0.00,,,0.07,42.000000,,2013-01-19 15:53:00,
2013-01-19 10:03:00,21.0,19.0,-100.00,SW,223,1.0,4.0,90,0.00,,,0.07,42.000000,,2013-01-19 16:03:00,
2013-01-19 10:13:00,21.0,19.0,-100.00,SW,223,1.0,4.0,90,0.00,,,0.07,42.000000,,2013-01-19 16:13:00,
2013-01-19 10:15:00,27.0,23.0,-100.00,WSW,255,3.0,7.0,86,0.00,,,0.07,111.000000,,2013-01-19 16:15:00,
2013-01-19 10:33:00,27.0,23.0,-100.00,WSW,255,3.0,7.0,86,0.00,,,0.07,111.000000,,2013-01-19 16:33:00,
2013-01-19 10:43:00,27.0,23.0,-100.00,WSW,255,3.0,7.0,86,0.00,,,0.07,111.000000,,2013-01-19 16:43:00,
2013-01-19 10:54:00,27.0,23.0,-100.00,WSW,255,3.0,7.0,86,0.00,,,0.07,111.000000,,2013-01-19 16:54:00,
2013-01-19 11:03:00,27.0,23.0,-100.00,WSW,255,3.0,7.0,86,0.00,,,0.07,111.000000,,2013-01-19 17:03:00,
2013-01-19 11:38:00,31.0,25.0,-100.00,WSW,256,5.0,15.0,78,0.00,,,0.07,127.000000,,2013-01-19 17:38:00,
2013-01-19 11:50:00,31.0,25.0,-100.00,WSW,256,5.0,15.0,78,0.00,,,0.07,127.000000,,2013-01-19 17:50:00,
2013-01-19 11:55:00,31.0,25.0,-100.00,WSW,256,5.0,15.0,78,0.00,,,0.07,127.000000,,2013-01-19 17:55:00,
2013-01-19 12:11:00,31.0,25.0,-100.00,WSW,256,5.0,15.0,78,0.00,,,0.07,127.000000,,2013-01-19 18:11:00,
2013-01-19 12:38:00,35.0,26.0,-100.00,West,281,10.0,22.0,70,0.00,,,-99.99,119.000000,,2013-01-19 18:38:00,
2013-01-19 12:48:00,35.0,26.0,-100.00,West,281,10.0,22.0,70,0.00,,,-99.99,119.000000,,2013-01-19 18:48:00,
2013-01-19 13:02:00,35.0,26.0,-100.00,West,281,10.0,22.0,70,0.00,,,-99.99,119.000000,,2013-01-19 19:02:00,
2013-01-19 13:15:00,35.0,26.0,-100.00,West,273,13.0,24.0,68,0.00,,,0.04,144.000000,,2013-01-19 19:15:00,
2013-01-19 13:49:00,35.0,26.0,-100.00,West,273,13.0,24.0,68,0.00,,,0.04,144.000000,,2013-01-19 19:49:00,
2013-01-19 13:58:00,35.0,26.0,-100.00,West,273,13.0,24.0,68,0.00,,,0.04,144.000000,,2013-01-19 19:58:00,
2013-01-19 14:10:00,35.0,26.0,-100.00,West,273,13.0,24.0,68,0.00,,,0.04,144.000000,,2013-01-19 20:10:00,
2013-01-19 14:50:00,33.0,17.0,-100.00,West,280,14.0,31.0,52,0.00,,,0.00,170.000000,,2013-01-19 20:50:00,
2013-01-19 14:59:00,33.0,17.0,-100.00,West,280,14.0,31.0,52,0.00,,,0.00,170.000000,,2013-01-19 20:59:00,
2013-01-19 15:06:00,33.0,17.0,-100.00,West,280,14.0,31.0,52,0.00,,,0.00,170.000000,,2013-01-19 21:06:00,
2013-01-19 15:14:00,33.0,17.0,-100.00,West,280,14.0,31.0,52,0.00,,,0.00,170.000000,,2013-01-19 21:14:00,
2013-01-19 15:15:00,27.0,10.0,-100.00,West,275,15.0,32.0,48,0.00,,,0.00,257.000000,,2013-01-19 21:15:00,
2013-01-19 16:00:00,27.0,10.0,-100.00,West,275,15.0,32.0,48,0.00,,,0.00,257.000000,,2013-01-19 22:00:00,
2013-01-19 16:49:00,16.0,7.0,-100.00,WNW,293,18.0,33.0,68,0.00,,,0.00,80.000000,,2013-01-19 22:49:00,
2013-01-19 16:58:00,16.0,7.0,-100.00,WNW,293,18.0,33.0,68,0.00,,,0.00,80.000000,,2013-01-19 22:58:00,
2013-01-19 17:13:00,16.0,7.0,-100.00,WNW,293,18.0,33.0,68,0.00,,,0.00,80.000000,,2013-01-19 23:13:00,
2013-01-19 17:15:00,11.0,-6.0,-100.00,WNW,292,16.0,29.0,45,0.00,,,0.00,14.000000,,2013-01-19 23:15:00,
2013-01-19 17:51:00,11.0,-6.0,-100.00,WNW,292,16.0,29.0,45,0.00,,,0.00,14.000000,,2013-01-19 23:51:00,
2013-01-19 18:07:00,11.0,-6.0,-100.00,WNW,292,16.0,29.0,45,0.00,,,0.00,14.000000,,2013-01-20 00:07:00,
2013-01-19 18:15:00,7.0,-9.0,-100.00,WNW,303,14.0,28.0,48,0.00,,,0.00,0.000000,,2013-01-20 00:15:00,
2013-01-19 18:38:00,7.0,-9.0,-100.00,WNW,303,14.0,28.0,48,0.00,,,0.00,0.000000,,2013-01-20 00:38:00,
2013-01-19 18:48:00,7.0,-9.0,-100.00,WNW,303,14.0,28.0,48,0.00,,,0.00,0.000000,,2013-01-20 00:48:00,
2013-01-19 19:04:00,7.0,-9.0,-100.00,WNW,303,14.0,28.0,48,0.00,,,0.00,0.000000,,2013-01-20 01:04:00,
2013-01-19 19:39:00,6.0,-9.0,-100.00,NW,304,12.0,33.0,50,0.00,,,0.00,0.000000,,2013-01-20 01:39:00,
2013-01-19 20:04:00,6.0,-9.0,-100.00,NW,304,12.0,33.0,50,0.00,,,0.00,0.000000,,2013-01-20 02:04:00,
2013-01-19 20:14:00,6.0,-9.0,-100.00,NW,304,12.0,33.0,50,0.00,,,0.00,0.000000,,2013-01-20 02:14:00,
2013-01-19 20:45:00,5.0,-8.0,-100.00,NW,308,10.0,25.0,54,0.00,,,0.00,0.000000,,2013-01-20 02:45:00,
2013-01-19 20:59:00,5.0,-8.0,-100.00,NW,308,10.0,25.0,54,0.00,,,0.00,0.000000,,2013-01-20 02:59:00,
2013-01-19 21:14:00,5.0,-8.0,-100.00,NW,308,10.0,25.0,54,0.00,,,0.00,0.000000,,2013-01-20 03:14:00,
2013-01-19 21:15:00,5.0,-6.0,-100.00,NW,315,11.0,21.0,59,0.00,,,0.00,0.000000,,2013-01-20 03:15:00,
2013-01-19 21:39:00,5.0,-6.0,-100.00,NW,315,11.0,21.0,59,0.00,,,0.00,0.000000,,2013-01-20 03:39:00,
2013-01-19 21:47:00,5.0,-6.0,-100.00,NW,315,11.0,21.0,59,0.00,,,0.00,0.000000,,2013-01-20 03:47:00,
2013-01-19 21:58:00,5.0,-6.0,-100.00,NW,315,11.0,21.0,59,0.00,,,0.00,0.000000,,2013-01-20 03:58:00,
2013-01-19 22:05:00,5.0,-6.0,-100.00,NW,315,11.0,21.0,59,0.00,,,0.00,0.000000,,2013-01-20 04:05:00,
2013-01-19 22:45:00,4.0,-9.0,-100.00,NW,317,12.0,21.0,55,0.00,,,0.00,0.000000,,2013-01-20 04:45:00,
2013-01-19 23:04:00,4.0,-9.0,-100.00,NW,317,12.0,21.0,55,0.00,,,0.00,0.000000,,2013-01-20 05:04:00,
2013-01-19 23:12:00,4.0,-9.0,-100.00,NW,317,12.0,21.0,55,0.00,,,0.00,0.000000,,2013-01-20 05:12:00,
2013-01-19 23:33:00,3.0,-9.0,-100.00,NW,309,7.0,19.0,57,0.00,,,0.00,0.000000,,2013-01-20 05:33:00,
2013-01-19 23:43:00,3.0,-9.0,-100.00,NW,309,7.0,19.0,57,0.00,,,0.00,0.000000,,2013-01-20 05:43:00,
2013-01-19 23:53:00,3.0,-9.0,-100.00,NW,309,7.0,19.0,57,0.00,,,0.00,0.000000,,2013-01-20 05:53:00,